NKS1629 KDTW-KLGA

Flight info

Callsign NKS1629
Flight time 1h 4m
Altitude 37000
Route PAVYL3 ESSBE SPYDY Q186 WEVEL ETG MIP4
Aircraft A320/M-SDE3FGHIRWY/LB1

Departure

Time 2026-05-04 11:10
Airport Detroit Metropolitan Wayne County Airport (KDTW)

Arrival

Time 2026-05-04 12:14
Airport LaGuardia Airport (KLGA)
Time Latitude Longitude Altitude Speed Heading
2026-05-04 10:41 42.22449 -83.35011 646 ft 0 kts 118°
2026-05-04 10:59 42.22457 -83.35030 647 ft 4 kts 118°
2026-05-04 11:00 42.22468 -83.35058 646 ft 2 kts 118°
2026-05-04 11:01 42.22509 -83.35067 647 ft 0 kts 208°
2026-05-04 11:05 42.21907 -83.34462 646 ft 17 kts 28°
2026-05-04 11:06 42.22020 -83.34378 646 ft 20 kts 28°
2026-05-04 11:06 42.22147 -83.34287 647 ft 22 kts 28°
2026-05-04 11:06 42.22286 -83.34184 646 ft 24 kts 28°
2026-05-04 11:06 42.22437 -83.34073 646 ft 26 kts 29°
2026-05-04 11:08 42.20830 -83.35091 954 ft 143 kts 208°
2026-05-04 11:10 42.12247 -83.35996 3748 ft 255 kts 183°
2026-05-04 11:12 42.03797 -83.23871 9540 ft 301 kts 107°
2026-05-04 11:12 42.03112 -83.21192 10261 ft 307 kts 107°
2026-05-04 11:12 42.02390 -83.18376 10488 ft 330 kts 107°
2026-05-04 11:12 42.01613 -83.15359 10654 ft 353 kts 108°
2026-05-04 11:13 42.00789 -83.12187 11110 ft 364 kts 108°
2026-05-04 11:13 41.99941 -83.08955 11720 ft 370 kts 108°
2026-05-04 11:13 41.99079 -83.05672 12329 ft 375 kts 107°
2026-05-04 11:13 41.98203 -83.02343 12928 ft 381 kts 107°
2026-05-04 11:14 41.97310 -82.98952 13540 ft 386 kts 107°
2026-05-04 11:14 41.96410 -82.95526 14076 ft 391 kts 107°
2026-05-04 11:14 41.95501 -82.92063 14658 ft 395 kts 107°
2026-05-04 11:16 41.88871 -82.66964 18545 ft 419 kts 107°
2026-05-04 11:16 41.87888 -82.63260 19057 ft 422 kts 107°
2026-05-04 11:16 41.86908 -82.59580 19563 ft 425 kts 107°
2026-05-04 11:17 41.85906 -82.55827 20077 ft 429 kts 107°
2026-05-04 11:17 41.84897 -82.52053 20589 ft 431 kts 107°
2026-05-04 11:19 41.77619 -82.24976 23747 ft 451 kts 107°
2026-05-04 11:19 41.76560 -82.21068 24117 ft 453 kts 107°
2026-05-04 11:19 41.75466 -82.17035 24493 ft 456 kts 107°
2026-05-04 11:19 41.74395 -82.13090 24847 ft 458 kts 107°
2026-05-04 11:20 41.73286 -82.09015 25210 ft 461 kts 107°
2026-05-04 11:20 41.72201 -82.05031 25572 ft 463 kts 107°
2026-05-04 11:20 41.71096 -82.00975 25929 ft 465 kts 107°
2026-05-04 11:20 41.69983 -81.96899 26285 ft 468 kts 108°
2026-05-04 11:22 41.61993 -81.67840 28822 ft 482 kts 108°
2026-05-04 11:22 41.60829 -81.63645 29316 ft 481 kts 108°
2026-05-04 11:23 41.59668 -81.59460 29833 ft 480 kts 109°
2026-05-04 11:23 41.58508 -81.55282 30255 ft 479 kts 109°
2026-05-04 11:24 41.53551 -81.29766 32628 ft 474 kts 94°
2026-05-04 11:25 41.53157 -81.25401 33042 ft 474 kts 94°
2026-05-04 11:25 41.52760 -81.21040 33450 ft 474 kts 94°
2026-05-04 11:25 41.52356 -81.16675 33860 ft 474 kts 94°
2026-05-04 11:26 41.51533 -81.07885 34473 ft 474 kts 95°
2026-05-04 11:27 41.48643 -80.77177 36337 ft 479 kts 96°
2026-05-04 11:28 41.48219 -80.72762 36577 ft 480 kts 96°
2026-05-04 11:28 41.47792 -80.68348 36804 ft 481 kts 96°
2026-05-04 11:28 41.46925 -80.59429 36892 ft 489 kts 96°
2026-05-04 11:29 41.46043 -80.50465 36900 ft 492 kts 96°
2026-05-04 11:29 41.45147 -80.41422 36895 ft 492 kts 96°
2026-05-04 11:33 41.38891 -79.78062 36921 ft 493 kts 97°
2026-05-04 11:33 41.37986 -79.68945 36927 ft 493 kts 97°
2026-05-04 11:34 41.37090 -79.59949 36929 ft 494 kts 97°
2026-05-04 11:34 41.36175 -79.50884 36934 ft 494 kts 97°
2026-05-04 11:35 41.35250 -79.41824 36933 ft 494 kts 97°
2026-05-04 11:35 41.34320 -79.32764 36946 ft 494 kts 97°
2026-05-04 11:36 41.33388 -79.23705 36948 ft 494 kts 97°
2026-05-04 11:36 41.32446 -79.14637 36945 ft 495 kts 97°
2026-05-04 11:37 41.31652 -79.07105 36948 ft 495 kts 97°
2026-05-04 11:37 41.30694 -78.98033 36945 ft 495 kts 97°
2026-05-04 11:38 41.29724 -78.88967 36934 ft 495 kts 97°
2026-05-04 11:38 41.28757 -78.79893 36933 ft 495 kts 97°
2026-05-04 11:39 41.27783 -78.70822 36935 ft 495 kts 97°
2026-05-04 11:40 41.24801 -78.43795 34934 ft 488 kts 96°
2026-05-04 11:41 41.24305 -78.39335 34432 ft 487 kts 96°
2026-05-04 11:41 41.23813 -78.34895 33916 ft 485 kts 96°
2026-05-04 11:41 41.23322 -78.30465 33287 ft 484 kts 96°
2026-05-04 11:41 41.22831 -78.26056 32962 ft 482 kts 96°
2026-05-04 11:42 41.22340 -78.21700 32959 ft 483 kts 96°
2026-05-04 11:42 41.21333 -78.12863 32967 ft 484 kts 97°
2026-05-04 11:43 41.20258 -78.04024 32961 ft 485 kts 97°
2026-05-04 11:43 41.19131 -77.95108 32967 ft 493 kts 97°
2026-05-04 11:44 41.17997 -77.86121 32974 ft 494 kts 97°
2026-05-04 11:44 41.16867 -77.77120 32971 ft 494 kts 97°
2026-05-04 11:45 41.15731 -77.68115 32974 ft 495 kts 98°
2026-05-04 11:45 41.14588 -77.59109 32965 ft 495 kts 98°
2026-05-04 11:46 41.13431 -77.50105 32971 ft 495 kts 98°
2026-05-04 11:46 41.12264 -77.41093 32972 ft 496 kts 98°
2026-05-04 11:47 41.11089 -77.32081 32970 ft 496 kts 98°
2026-05-04 11:47 41.09906 -77.23058 32983 ft 496 kts 98°
2026-05-04 11:48 41.08725 -77.14106 32988 ft 497 kts 99°
2026-05-04 11:48 41.07538 -77.05092 32993 ft 496 kts 99°
2026-05-04 11:49 41.06337 -76.96080 32992 ft 496 kts 99°
2026-05-04 11:49 41.05127 -76.87078 32994 ft 496 kts 99°
2026-05-04 11:50 41.03913 -76.78074 33000 ft 496 kts 99°
2026-05-04 11:50 41.02688 -76.69086 33012 ft 496 kts 99°
2026-05-04 11:51 41.00853 -76.60298 33008 ft 496 kts 108°
2026-05-04 11:51 40.98761 -76.51599 33007 ft 496 kts 108°
2026-05-04 11:52 40.96672 -76.42894 33008 ft 496 kts 108°
2026-05-04 11:52 40.94595 -76.34250 33007 ft 496 kts 108°
2026-05-04 11:53 40.92474 -76.25568 33013 ft 496 kts 108°
2026-05-04 11:53 40.90341 -76.16884 33018 ft 497 kts 108°
2026-05-04 11:55 40.81817 -75.82103 31657 ft 506 kts 109°
2026-05-04 11:55 40.80709 -75.77656 30720 ft 510 kts 109°
2026-05-04 11:56 40.79606 -75.73231 29996 ft 507 kts 108°
2026-05-04 11:56 40.78506 -75.68805 29104 ft 506 kts 109°
2026-05-04 11:56 40.77411 -75.64403 28420 ft 501 kts 109°
2026-05-04 11:56 40.76328 -75.60068 27795 ft 494 kts 109°
2026-05-04 11:57 40.75255 -75.55787 27182 ft 489 kts 109°
2026-05-04 11:57 40.74206 -75.51620 26572 ft 483 kts 109°
2026-05-04 11:57 40.73154 -75.47436 25955 ft 478 kts 109°
2026-05-04 11:57 40.72145 -75.43282 25372 ft 473 kts 107°
2026-05-04 11:58 40.71246 -75.39131 24767 ft 469 kts 105°
2026-05-04 11:58 40.70434 -75.34984 24181 ft 465 kts 104°
2026-05-04 11:58 40.69458 -75.30978 23806 ft 454 kts 115°
2026-05-04 11:58 40.68008 -75.27304 23145 ft 450 kts 120°
2026-05-04 11:59 40.66511 -75.23713 22560 ft 445 kts 120°
2026-05-04 11:59 40.65007 -75.20167 21991 ft 441 kts 121°
2026-05-04 11:59 40.63511 -75.16664 21435 ft 437 kts 121°
2026-05-04 11:59 40.62032 -75.13200 20897 ft 433 kts 121°
2026-05-04 12:00 40.60563 -75.09749 20369 ft 431 kts 121°
2026-05-04 12:00 40.59083 -75.06262 19820 ft 445 kts 121°
2026-05-04 12:00 40.57561 -75.02678 19290 ft 450 kts 120°
2026-05-04 12:00 40.56255 -74.98948 18745 ft 449 kts 112°
2026-05-04 12:01 40.55128 -74.95130 18193 ft 446 kts 112°
2026-05-04 12:01 40.54007 -74.91350 17607 ft 442 kts 112°
2026-05-04 12:02 40.47470 -74.69573 14199 ft 415 kts 113°
2026-05-04 12:03 40.46422 -74.66087 13878 ft 403 kts 113°
2026-05-04 12:03 40.45401 -74.62699 13302 ft 398 kts 113°
2026-05-04 12:03 40.44394 -74.59331 12661 ft 394 kts 111°
2026-05-04 12:03 40.43742 -74.55883 12009 ft 393 kts 98°
2026-05-04 12:04 40.43687 -74.52284 11464 ft 389 kts 85°
2026-05-04 12:04 40.44216 -74.48810 10864 ft 386 kts 71°
2026-05-04 12:04 40.45104 -74.45520 10556 ft 375 kts 70°
2026-05-04 12:04 40.45963 -74.42360 10437 ft 360 kts 70°
2026-05-04 12:05 40.46786 -74.39311 10312 ft 348 kts 70°
2026-05-04 12:05 40.47575 -74.36375 10190 ft 337 kts 70°
2026-05-04 12:05 40.48341 -74.33507 10074 ft 326 kts 70°
2026-05-04 12:05 40.49074 -74.30772 9879 ft 319 kts 70°
2026-05-04 12:06 40.49807 -74.28037 9546 ft 317 kts 70°
2026-05-04 12:06 40.50535 -74.25313 9206 ft 315 kts 70°
2026-05-04 12:06 40.51255 -74.22607 8864 ft 313 kts 70°
2026-05-04 12:06 40.51974 -74.19907 8520 ft 312 kts 70°
2026-05-04 12:07 40.52690 -74.17224 8185 ft 311 kts 70°
2026-05-04 12:07 40.53396 -74.14580 7850 ft 309 kts 70°
2026-05-04 12:07 40.54105 -74.11921 7529 ft 308 kts 70°
2026-05-04 12:07 40.54814 -74.09272 7207 ft 306 kts 69°
2026-05-04 12:08 40.55817 -74.06832 6944 ft 301 kts 51°
2026-05-04 12:08 40.57250 -74.04885 6703 ft 294 kts 34°
2026-05-04 12:08 40.58935 -74.03407 6391 ft 291 kts 29°
2026-05-04 12:08 40.60635 -74.01972 6083 ft 290 kts 29°
2026-05-04 12:09 40.62304 -74.00552 5900 ft 277 kts 30°
2026-05-04 12:09 40.63869 -73.99212 5773 ft 260 kts 30°
2026-05-04 12:09 40.65335 -73.97960 5643 ft 244 kts 29°
2026-05-04 12:09 40.66698 -73.96796 5509 ft 229 kts 29°
2026-05-04 12:10 40.68014 -73.95661 5231 ft 223 kts 29°
2026-05-04 12:10 40.69296 -73.94550 4991 ft 213 kts 32°
2026-05-04 12:10 40.70310 -73.93289 4870 ft 189 kts 45°
2026-05-04 12:10 40.71170 -73.92056 4551 ft 179 kts 45°
2026-05-04 12:11 40.71858 -73.90699 4124 ft 179 kts 66°
2026-05-04 12:11 40.72215 -73.89138 3733 ft 177 kts 79°
2026-05-04 12:11 40.72488 -73.87555 3337 ft 177 kts 79°
2026-05-04 12:11 40.72734 -73.85969 2855 ft 178 kts 86°
2026-05-04 12:12 40.72768 -73.84331 2359 ft 178 kts 92°
2026-05-04 12:12 40.73099 -73.82815 2005 ft 173 kts 57°
2026-05-04 12:12 40.73951 -73.81748 1669 ft 168 kts 20°
2026-05-04 12:12 40.75034 -73.81528 1363 ft 151 kts 335°
2026-05-04 12:13 40.75751 -73.82353 964 ft 137 kts 287°
2026-05-04 12:14 40.78030 -73.87637 16 ft 11 kts 230°
2026-05-04 12:15 40.77967 -73.87694 18 ft 10 kts 211°
2026-05-04 12:15 40.77906 -73.87746 19 ft 11 kts 212°
2026-05-04 12:15 40.77835 -73.87804 20 ft 13 kts 212°
2026-05-04 12:15 40.77754 -73.87871 23 ft 15 kts 211°
2026-05-04 12:16 40.77662 -73.87945 21 ft 17 kts 211°
2026-05-04 12:16 40.77558 -73.88033 21 ft 19 kts 214°
2026-05-04 12:16 40.77436 -73.88135 19 ft 21 kts 212°
2026-05-04 12:16 40.77315 -73.88236 21 ft 12 kts 214°
2026-05-04 12:17 40.77286 -73.88320 19 ft 10 kts 284°
2026-05-04 12:17 40.77281 -73.88411 19 ft 8 kts 262°
2026-05-04 12:17 40.77286 -73.88466 19 ft 5 kts 314°
2026-05-04 12:17 40.77316 -73.88483 19 ft 3 kts 339°
2026-05-04 12:18 40.77327 -73.88485 19 ft 1 kts
2026-05-04 12:18 40.77333 -73.88482 19 ft 0 kts 19°
2026-05-04 12:18 40.77337 -73.88480 19 ft 0 kts 19°